EW0482 Weather Reports


Display with metric or nautical units.
time (UTC)temp
F
wind
direction
speed
MPH
gust
MPH
rain 1hr
in
rain 24hr
in
rain mn
in
humidity
%
barometer
mb
20260507231511 69 250 2.0 9.0 0.00 0.00 0.00 71 1003.1
20260507230015 70 250 1.0 9.0 0.00 0.00 0.00 70 1003.1
20260507224602 70 248 0.0 5.0 0.00 0.00 0.00 71 1003.1
20260507223058 70 237 0.0 5.0 0.00 0.00 0.00 70 1003.2
20260507221551 70 240 0.0 9.0 0.00 0.00 0.00 69 1003.3
20260507220047 71 242 1.0 8.0 0.00 0.00 0.00 68 1003.4
20260507214546 70 259 0.0 6.0 0.00 0.00 0.00 70 1003.6
20260507213044 70 250 0.0 9.0 0.00 0.00 0.00 70 1003.7
20260507211545 69 252 1.0 8.0 0.00 0.00 0.00 71 1003.8
20260507210029 69 236 2.0 8.0 0.00 0.00 0.00 71 1004.0
20260507204524 69 217 2.0 10.0 0.00 0.00 0.00 71 1004.1
20260507203020 70 194 1.0 9.0 0.00 0.00 0.00 70 1004.2
20260507201525 70 245 0.0 9.0 0.00 0.00 0.00 70 1004.4
20260507200013 71 246 1.0 7.0 0.00 0.00 0.00 68 1004.5
20260507194507 72 232 0.0 5.0 0.00 0.00 0.00 69 1004.7
20260507193005 72 250 0.0 7.0 0.00 0.00 0.00 67 1004.7
20260507191603 73 242 2.0 7.0 0.00 0.00 0.00 65 1004.8
20260507190054 73 272 0.0 6.0 0.00 0.00 0.00 66 1005.0
20260507184549 73 250 0.0 5.0 0.00 0.00 0.00 68 1005.0
20260507183053 72 257 0.0 4.0 0.00 0.00 0.00 67 1005.2
20260507181540 72 213 0.0 2.0 0.00 0.00 0.00 69 1005.2
20260507180047 71 173 0.0 1.0 0.00 0.00 0.00 69 1005.3
20260507174533 70 249 0.0 3.0 0.00 0.00 0.00 71 1005.3
20260507173029 70 251 1.0 7.0 0.00 0.00 0.00 70 1005.4
20260507171523 71 247 0.0 5.0 0.00 0.00 0.00 71 1005.4
20260507170034 71 260 0.0 3.0 0.00 0.00 0.00 70 1005.4
20260507164514 70 248 0.0 2.0 0.00 0.00 0.00 70 1005.4
20260507163010 69 248 0.0 3.0 0.00 0.00 0.00 72 1005.5
20260507161506 67 248 0.0 1.0 0.00 0.00 0.00 71 1005.6
20260507160000 67 242 0.0 2.0 0.00 0.00 0.00 69 1005.6
20260507154556 66 257 0.0 2.0 0.00 0.00 0.00 66 1005.7
20260507153103 65 252 0.0 1.0 0.00 0.00 0.00 64 1005.7
20260507151548 64 251 0.0 1.0 0.00 0.00 0.00 47 1005.7
20260507150045 62 252 0.0 1.0 0.00 0.00 0.00 17 1005.7
20260507144543 61 252 0.0 1.0 0.00 0.00 0.00 1 1005.6
20260507143034 61 254 0.0 0.0 0.00 0.00 0.00 100 1005.6
20260507141530 60 254 0.0 0.0 0.00 0.00 0.00 100 1005.5
20260507140033 60 254 0.0 0.0 0.00 0.00 0.00 100 1005.2
20260507134521 58 254 0.0 0.0 0.00 0.00 0.00 100 1005.2
20260507133017 57 254 0.0 0.0 0.00 0.00 0.00 100 1005.1
20260507131512 56 254 0.0 0.0 0.00 0.00 0.00 100 1005.0
20260507130008 56 254 0.0 0.0 0.00 0.00 0.00 100 1004.9
20260507124503 55 254 0.0 0.0 0.00 0.00 0.00 100 1004.8
20260507123059 55 254 0.0 0.0 0.00 0.00 0.00 100 1004.8
20260507121558 56 254 0.0 0.0 0.00 0.00 0.00 100 1004.8
20260507120051 56 254 0.0 0.0 0.00 0.00 0.00 100 1004.8
20260507114546 56 254 0.0 0.0 0.00 0.00 0.00 100 1004.8
20260507113046 56 254 0.0 0.0 0.00 0.00 0.00 100 1004.9
20260507111537 56 254 0.0 0.0 0.00 0.00 0.00 100 1004.9
20260507110035 56 254 0.0 0.0 0.00 0.00 0.00 100 1005.0
20260507104528 56 254 0.0 0.0 0.00 0.00 0.00 1 1005.1
20260507103024 56 254 0.0 0.0 0.00 0.00 0.00 1 1005.4
20260507101520 56 254 0.0 0.0 0.00 0.00 0.00 5 1005.3
20260507100016 56 254 0.0 0.0 0.00 0.00 0.00 7 1005.4
20260507094512 57 254 0.0 0.0 0.00 0.00 0.00 8 1005.5
20260507093013 57 254 0.0 0.0 0.00 0.00 0.00 9 1005.5
20260507091504 57 254 0.0 0.0 0.00 0.00 0.00 14 1005.7
20260507090002 57 254 0.0 0.0 0.00 0.00 0.00 14 1005.8
20260507084607 57 254 0.0 0.0 0.00 0.00 0.00 14 1005.9
20260507083058 57 254 0.0 0.0 0.00 0.00 0.00 20 1006.0
20260507081559 57 254 0.0 0.0 0.00 0.00 0.00 25 1006.1
20260507080056 58 254 0.0 0.0 0.00 0.00 0.00 23 1006.1
20260507074557 57 254 0.0 0.0 0.00 0.00 0.00 26 1006.2
20260507073052 58 254 0.0 0.0 0.00 0.00 0.00 30 1006.2
20260507071549 58 254 0.0 0.0 0.00 0.00 0.00 31 1006.3
20260507064553 58 254 0.0 0.0 0.00 0.00 0.00 38 1006.4
20260507063047 59 254 0.0 0.0 0.00 0.00 0.00 37 1006.5
20260507061544 58 254 0.0 0.0 0.00 0.00 0.00 41 1006.4
20260507060047 59 254 0.0 0.0 0.00 0.00 0.00 46 1006.4
20260507054602 59 254 0.0 0.0 0.00 0.00 0.00 47 1006.5
20260507053041 59 254 0.0 0.0 0.00 0.00 0.00 50 1006.4
20260507051547 59 254 0.0 0.0 0.00 0.00 0.00 51 1006.4
20260507050047 59 254 0.0 0.0 0.00 0.00 0.00 54 1006.3
20260507044543 59 254 0.0 0.0 0.00 0.00 0.00 55 1006.4
20260507043039 60 254 0.0 0.0 0.00 0.00 0.00 57 1006.2
20260507041542 60 254 0.0 1.0 0.00 0.00 0.00 60 1006.2
20260507040042 60 254 0.0 3.0 0.00 0.00 0.00 64 1006.2
20260507034536 60 257 0.0 3.0 0.00 0.00 0.00 67 1005.9
20260507033038 60 259 0.0 1.0 0.00 0.00 0.00 70 1005.8
20260507031539 61 252 0.0 2.0 0.00 0.00 0.00 73 1005.6
20260507030033 61 252 0.0 4.0 0.00 0.00 0.00 75 1005.6
20260507024537 62 254 0.0 4.0 0.00 0.00 0.00 76 1005.4
20260507023032 62 253 0.0 1.0 0.00 0.00 0.00 76 1005.2
20260507021536 63 246 0.0 5.0 0.00 0.00 0.00 74 1005.1
20260507020036 64 179 0.0 4.0 0.00 0.00 0.00 73 1005.0
20260507014532 64 247 1.0 9.0 0.00 0.00 0.00 73 1005.0
20260507013033 65 240 0.0 5.0 0.00 0.00 0.00 72 1004.9
20260507011531 66 240 0.0 8.0 0.00 0.00 0.00 71 1004.9
20260507010037 67 229 0.0 5.0 0.00 0.00 0.00 71 1004.7
20260507004528 67 198 0.0 10.0 0.00 0.00 0.00 70 1004.8
20260507003026 67 248 0.0 8.0 0.00 0.00 0.00 69 1004.8
20260507001535 67 261 1.0 11.0 0.00 0.00 0.00 69 1004.8
20260507000032 68 249 1.0 8.0 0.00 0.00 0.00 68 1004.7
20260506234524 68 178 0.0 6.0 0.00 0.00 0.00 67 1004.8
20260506233023 69 235 1.0 8.0 0.00 0.00 0.00 68 1004.8